星链-5688 (STARLINK-5688 )

导读

STARLINK-5688是美国太空探索技术公司SpaceX星链星座的卫星,由美国在2023年2月2日发射。星链项目旨在构建全球卫星互联网星座,为全球范围提供低延迟、高速率的宽带互联网服务,该卫星入轨后承担相关通信服务任务,是星链大规模组网部署中的组成单元。

Basic Information
目录编号:
55479
目录名称:
STARLINK-5688
国际标识:
2023-015AG
轨道中心:
EARTH
卫星名称:
星链-5688
卫星全名:
星链-5688 (STARLINK-5688 )
卫星状态:
在轨 (已飞行1317 天)
发射日期:
2023-02-02 UTC
国别 :
美国 (US)
星等 :
--
This satellite is enrolled in the Space Conjunction Data Service (SCDS) and the current flight risk assessment level is: High Risk
Orbit Information
数据来源 国际轨道数据
星历时间: 2026-09-11T15:49:24+0800
9小时前
查看轨道信息
半长轴: 6861.206km
偏心率: 0.0001937
轨道倾角: 43.007°
近地点辐角 284.741°
升交点赤经 353.231°
平近点角 75.323°
近地点: 481.739km
远地点: 484.399km
周期: 94.267分钟
每日圈数: 15.275734
Detailed Information
固有亮度:
5
最大亮度:
2.5
卫星平台:
Starlink v1.5
覆盖范围:
全球
运营商:
太空探索技术公司
运营商所在国:
美国
制造商(研发单位):
太空探索技术公司
制造商所在国:
美国
使用方式:
暂无
Satellite Introduction
星链(Starlink)计划是由太空探索技术公司(SpaceX)提出的一个巨型低轨卫星互联网星座项目,计划在2019年至2024年间在太空搭建由约1.2万颗卫星组成的“星链”网络,其中1584颗将部署在地球上空550千米处的近地轨道,并从2020年开始工作。该卫星仍在工作。
2D Orbit Map
3D Orbit Map
Orbit Altitude Analysis Chart
Orbit Inclination Analysis Chart
Orbit Comprehensive Analysis Chart
View Comprehensive Chart
Conjunction Data List
Event ID Objects TCA Miss Dist (km) Collision Risk Probability Collision Risk Index (CRI) Action
CDM_260914-001405-547906-713021
2026-09-14T
00:14:36+0000
0.385 km
远距离
2.840435E-4 高风险 0.84
CDM_260913-221905-547906-705721
2026-09-13T
22:19:55+0000
0.776 km
远距离
3.528863E-5 中风险 0.66
CDM_260913-092805-547906-736221
2026-09-13T
09:28:47+0000
1.065 km
极远距离
1.370985E-5 中风险 0.58
CDM_260912-231605-547906-736221
2026-09-12T
23:16:46+0000
1.094 km
极远距离
1.247149E-5 中风险 0.57
CDM_260912-214205-547906-736221
2026-09-12T
21:42:37+0000
1.138 km
极远距离
1.089353E-5 中风险 0.56
CDM_260914-065705-547906-705721
2026-09-14T
06:57:45+0000
1.409 km
极远距离
4.681216E-6 低风险 0.48
CDM_260913-110205-547906-736221
2026-09-13T
11:02:56+0000
1.500 km
极远距离
4.290059E-6 低风险 0.48
CDM_260911-234305-547905-730121
2026-09-11T
23:43:58+0000
1.663 km
极远距离
3.187348E-6 低风险 0.45
CDM_260912-011805-547905-730121
2026-09-12T
01:18:07+0000
2.265 km
极远距离
1.457715E-6 低风险 0.38
CDM_260913-152805-547906-383421
HERMES-5 (63834)
2026-09-13T
15:28:03+0000
2.878 km
极远距离
1.383807E-6 低风险 0.38
Miss Distance Evolution Trend with All Objects
Collision Probability Evolution Trend with All Objects